User: anonymous   Login
Location: *
(50.8512°N, 5.6907°E)
Time: 20:43:40
(UTC+00:00)
Language:

Nadezhda 3 Rocket - Orbit

View from above orbital plane
View from above orbital plane
View from above satellite
View from above satellite

Ground track
Ground track

The orbit data is extracted from the following two-line orbital elements,

1 21153U 91019B   20184.89871645 +.00000015 +00000-0 +39200-6 0  9991
2 21153 082.9261 095.4929 0027826 285.2017 144.9008 13.75941898471272
Epoch (UTC): 02 July 2020 21:34:09
Eccentricity: 0.0027826
inclination: 82.9261°
perigee height: 958 km
apogee height: 999 km
right ascension of ascending node: 95.4929°
argument of perigee: 285.2017°
revolutions per day: 13.75941898
mean anomaly at epoch: 144.9008°
orbit number at epoch: 47127

The dashed part of the orbit path shows where the satellite is in the earth's shadow,  

DLR